{"data":{"norad_id":66697,"epoch":"2026-05-25T04:30:56.668896Z","epoch_age_seconds":52589,"freshness":"FRESH","line1":"1 66697U 25276AH  26145.18815589  .00007034  00000+0  32533-3 0  9991","line2":"2 66697  97.4187 219.3099 0002958  70.1967 289.9587 15.20456059 26945","mean_motion":15.20456059,"eccentricity":0.0002958,"inclination_deg":97.4187,"raan_deg":219.3099,"arg_perigee_deg":70.1967,"mean_anomaly_deg":289.9587,"bstar":0.00032533,"rev_number":2694,"period_min":94.70842590131,"perigee_km":502.42811090625,"apogee_km":506.49985764855,"semimajor_km":6882.6009842774,"source":"CELESTRAK","updated_at":"2026-05-25T13:38:06.415172Z"}}